Anoka County, MN

12:45 AM CST on November 18, 2017 (GMT -0600)
Anoka County / Blaine Airport

Weather History for KANE - December, 2011

Change the Weather History Date:

Friday, December 23, 2011

  Actual Average Record
Temperature  
Mean Temperature 29 °F -  
Max Temperature 37 °F 22 °F 42 °F (2005)
Min Temperature 19 °F 8 °F -9 °F (2004)
Degree Days  
Heating Degree Days 36    
Moisture  
Dew Point 19 °F    
Average Humidity 78    
Maximum Humidity 93    
Minimum Humidity 59    
Precipitation  
Precipitation 0.00 in - - ()
Sea Level Pressure  
Sea Level Pressure 30.11 in    
Wind  
Wind Speed 9 mph (SW)    
Max Wind Speed 16 mph    
Max Gust Speed 25 mph    
Visibility 10 miles    
Events Snow    
Averages and records for this station are not official NWS values.
T = Trace of Precipitation, MM = Missing Value Source: NWS Daily Summary

Daily Weather History Graph

Daily Weather History Graph

Search for Another Location

Airport or City:

Trip Planner

Search our weather history database for the weather conditions in past years. The results will help you decide how hot, cold, wet, or windy it might be!

Date:

Astronomy

Dec. 23, 2011 Rise Set
Actual Time 7:49 AM CST 4:34 PM CST
Civil Twilight 7:15 AM CST 5:08 PM CST
Nautical Twilight 6:38 AM CST 5:45 PM CST
Astronomical Twilight 6:02 AM CST 6:21 PM CST
Moon 6:40 AM CST (12/23) 3:43 PM CST (12/23)
Length of Visible Light 9h 52m
Length of Day
8h 44m
Waning Crescent, 1% of the Moon is Illuminated
Dec 23
Waning Crescent
Dec 24
New
Jan 1
First Quarter
Jan 9
Full
Jan 16
Last Quarter

Hourly Weather History & Observations

Time (CST) Temp. Windchill Dew Point Humidity Pressure Visibility Wind Dir Wind Speed Gust Speed Precip Events Conditions
12:14 AM 21.2 °F 11.7 °F 15.8 °F 80% 30.24 in 10.0 mi South 8.1 mph - N/A   Clear
12:34 AM 21.2 °F 11.7 °F 15.8 °F 80% 30.24 in 10.0 mi South 8.1 mph - N/A   Clear
12:54 AM 21.2 °F 10.1 °F 15.8 °F 80% 30.23 in 10.0 mi South 10.4 mph - N/A   Clear
1:14 AM 21.2 °F 10.9 °F 15.8 °F 80% 30.23 in 10.0 mi South 9.2 mph - N/A   Clear
1:34 AM 21.2 °F 10.9 °F 15.8 °F 80% 30.23 in 10.0 mi SSW 9.2 mph - N/A   Clear
1:54 AM 21.2 °F 11.7 °F 15.8 °F 80% 30.22 in 10.0 mi SSW 8.1 mph - N/A   Clear
2:14 AM 21.2 °F 11.7 °F 15.8 °F 80% 30.22 in 10.0 mi SSW 8.1 mph - N/A   Clear
2:33 AM 21.2 °F 10.9 °F 17.6 °F 86% 30.21 in 10.0 mi South 9.2 mph - N/A   Clear
2:54 AM 21.2 °F 10.9 °F 17.6 °F 86% 30.21 in 10.0 mi South 9.2 mph - N/A   Clear
3:14 AM 21.2 °F 10.1 °F 17.6 °F 86% 30.20 in 10.0 mi SSW 10.4 mph - N/A   Clear
3:34 AM 21.2 °F 10.1 °F 17.6 °F 86% 30.18 in 10.0 mi SSW 10.4 mph - N/A   Clear
3:54 AM 21.2 °F 10.9 °F 17.6 °F 86% 30.18 in 10.0 mi South 9.2 mph - N/A   Clear
4:14 AM 21.2 °F 10.1 °F 17.6 °F 86% 30.16 in 10.0 mi South 10.4 mph - N/A   Clear
4:33 AM 21.2 °F 10.1 °F 17.6 °F 86% 30.15 in 10.0 mi South 10.4 mph - N/A   Scattered Clouds
4:54 AM 21.2 °F 10.9 °F 17.6 °F 86% 30.15 in 10.0 mi South 9.2 mph - N/A   Scattered Clouds
5:14 AM 23.0 °F 13.1 °F 17.6 °F 80% 30.14 in 10.0 mi South 9.2 mph - N/A   Mostly Cloudy
5:34 AM 23.0 °F 13.1 °F 17.6 °F 80% 30.13 in 10.0 mi South 9.2 mph - N/A   Overcast
5:54 AM 23.0 °F 12.4 °F 17.6 °F 80% 30.13 in 10.0 mi South 10.4 mph - N/A   Overcast
6:13 AM 24.8 °F 14.0 °F 17.6 °F 74% 30.11 in 10.0 mi South 11.5 mph - N/A   Overcast
6:34 AM 24.8 °F 14.6 °F 17.6 °F 74% 30.11 in 10.0 mi South 10.4 mph - N/A   Overcast
6:45 AM 24.8 °F 16.1 °F 17.6 °F 74% 30.10 in 10.0 mi South 8.1 mph - N/A   Overcast
7:50 AM 26.6 °F 16.2 °F 15.8 °F 64% 30.05 in 10.0 mi South 11.5 mph 17.3 mph N/A   Overcast
8:45 AM 28.4 °F 16.6 °F 15.8 °F 59% 30.01 in 10.0 mi South 16.1 mph 25.3 mph N/A   Overcast
9:45 AM 28.4 °F 16.6 °F 17.6 °F 64% 30.00 in 2.0 mi South 16.1 mph 23.0 mph N/A Snow Light Snow
10:45 AM 26.6 °F 16.2 °F 24.8 °F 93% 30.00 in 2.0 mi SW 11.5 mph 23.0 mph N/A Snow Light Snow
11:10 AM 26.6 °F 16.2 °F 24.8 °F 93% 29.98 in 3.0 mi SSW 11.5 mph 20.7 mph N/A Snow Light Snow
11:45 AM 28.4 °F 18.0 °F 24.8 °F 86% 29.95 in 10.0 mi SSW 12.7 mph 20.7 mph N/A   Mostly Cloudy
12:50 PM 32.0 °F 23.0 °F 24.8 °F 75% 29.95 in 12.0 mi WSW 11.5 mph - N/A   Mostly Cloudy
1:50 PM 35.6 °F 27.1 °F 24.8 °F 65% 29.95 in 12.0 mi WSW 12.7 mph 16.1 mph N/A   Scattered Clouds
2:45 PM 37.4 °F 29.8 °F 26.6 °F 65% 29.95 in 12.0 mi West 11.5 mph 17.3 mph N/A   Scattered Clouds
3:55 PM 37.4 °F 29.8 °F 24.8 °F 60% 29.99 in 12.0 mi West 11.5 mph 17.3 mph N/A   Partly Cloudy
4:55 PM 33.8 °F 28.6 °F 21.2 °F 60% 30.01 in 12.0 mi West 5.8 mph - N/A   Clear
5:55 PM 30.2 °F 24.3 °F 21.2 °F 69% 30.05 in 12.0 mi West 5.8 mph - N/A   Clear
6:45 PM 28.4 °F 22.2 °F 21.2 °F 74% 30.06 in 12.0 mi WNW 5.8 mph - N/A   Clear
7:50 PM 26.6 °F 21.2 °F 19.4 °F 74% 30.08 in 12.0 mi NW 4.6 mph - N/A   Clear
8:45 PM 26.6 °F 21.2 °F 19.4 °F 74% 30.11 in 12.0 mi West 4.6 mph - N/A   Clear
9:14 PM 28.4 °F 24.6 °F 19.4 °F 69% 30.11 in 10.0 mi SW 3.5 mph - N/A   Clear
9:34 PM 26.6 °F 22.6 °F 19.4 °F 74% 30.11 in 10.0 mi West 3.5 mph - N/A   Clear
9:54 PM 24.8 °F 19.1 °F 19.4 °F 80% 30.11 in 10.0 mi West 4.6 mph - N/A   Clear
10:14 PM 24.8 °F 17.9 °F 19.4 °F 80% 30.13 in 10.0 mi West 5.8 mph - N/A   Clear
10:34 PM 24.8 °F 20.5 °F 19.4 °F 80% 30.13 in 10.0 mi West 3.5 mph - N/A   Clear
10:54 PM 24.8 °F - 19.4 °F 80% 30.14 in 10.0 mi Calm Calm - N/A   Clear
11:14 PM 23.0 °F 18.4 °F 19.4 °F 86% 30.13 in 10.0 mi WSW 3.5 mph - N/A   Clear
11:34 PM 23.0 °F - 19.4 °F 86% 30.12 in 10.0 mi Calm Calm - N/A   Clear
11:54 PM 19.4 °F 14.3 °F 15.8 °F 86% 30.13 in 10.0 mi West 3.5 mph - N/A   Clear